Tracking 19800 objects as of 23-Jul-2019
HD Live streaming from Space Station
objects crossing your sky now

ORBCOMM FM 32

Track ORBCOMM FM 32 now!
10-day predictions
ORBCOMM FM 32 is classified as:


NORAD ID: 25982
Int'l Code: 1999-065C
Perigee: 789.5 km
Apogee: 794.7 km
Inclination: 45.0 °
Period: 100.6 minutes
Semi major axis: 7163 km
RCS: 0.8421 m2 (medium)
Launch date: December 4, 1999
Source: ORBCOMM (ORB)
Launch site: AIR FORCE EASTERN TEST RANGE (AFETR)
aabbcc
Your satellite tracking list
Your tracking list is empty




NASA's NSSDC Master Catalog

Two Line Element Set (TLE):
1 25982U 99065C   19203.90726586 -.00000089 +00000-0 +19097-4 0  9991
2 25982 045.0173 158.4869 0003607 086.1940 273.9318 14.32030866025400
Source of the keplerian elements: AFSPC